Change the Weather History Date:

Tuesday, February 4, 2014

  Actual Average (KHRO) Record (KHRO)
Temperature  
Mean Temperature 26 °F 38 °F  
Max Temperature 28 °F 48 °F 78 °F (1962)
Min Temperature 23 °F 28 °F -7 °F (1912)
Degree Days  
Heating Degree Days 40 27  
Month to date heating degree days 108  
Since 1 July heating degree days 2594  
Cooling Degree Days 0 0  
Month to date cooling degree days 0  
Year to date cooling degree days 0  
Moisture  
Dew Point 25 °F    
Average Humidity 95    
Maximum Humidity 100    
Minimum Humidity 80    
Precipitation  
Precipitation 0.00 in 0.09 in 1.11 in (1960)
Month to date precipitation 0.35  
Year to date precipitation 2.91  
Snow  
Snow 0.00 in 0.20 in 3.30 in (2011)
Month to date snowfall 0.8  
Since 1 July snowfall 6.8  
Snow Depth -    
Sea Level Pressure  
Sea Level Pressure 30.03 in    
Wind  
Wind Speed 8 mph (East)    
Max Wind Speed 15 mph    
Max Gust Speed 23 mph    
Visibility 6 miles    
Events Fog , Rain , Snow    
T = Trace of Precipitation, MM = Missing Value Source: NWS Daily Summary

Daily Weather History Graph

Daily Weather History Graph

Search for Another Location

Airport or City:

Trip Planner

Search our weather history database for the weather conditions in past years. The results will help you decide how hot, cold, wet, or windy it might be!

Date:

Astronomy

Feb. 04, 2014 Rise Set
Actual Time 7:11 AM CST 5:42 PM CST
Civil Twilight 6:44 AM CST 6:09 PM CST
Nautical Twilight 6:14 AM CST 6:39 PM CST
Astronomical Twilight 5:43 AM CST 7:10 PM CST
Moon 10:00 AM CST (2/4) 11:25 PM CST (2/4)
Length of Visible Light 11h 24m
Length of Day
10h 30m
Waxing Crescent, 29% of the Moon is Illuminated
Feb 4
Waxing Crescent
Feb 6
First Quarter
Feb 14
Full
Feb 22
Last Quarter
Mar 1
New

Hourly Weather History & Observations

Time (CST) Temp. Windchill Dew Point Humidity Pressure Visibility Wind Dir Wind Speed Gust Speed Precip Events Conditions
12:15 AM 26.6 °F 16.8 °F - N/A% 30.16 in 10.0 mi ESE 10.4 mph 16.1 mph N/A   Clear
12:35 AM 24.8 °F 15.3 °F - N/A% 30.17 in 10.0 mi ESE 9.2 mph - N/A   Mostly Cloudy
12:55 AM 24.8 °F 14.0 °F - N/A% 30.16 in 10.0 mi ESE 11.5 mph - N/A   Scattered Clouds
1:15 AM 24.8 °F 12.4 °F - N/A% 30.15 in 10.0 mi ESE 15.0 mph 19.6 mph N/A   Scattered Clouds
1:35 AM 24.8 °F 15.3 °F - N/A% 30.16 in 10.0 mi East 9.2 mph - N/A   Mostly Cloudy
1:55 AM 24.8 °F 14.6 °F - N/A% 30.16 in 10.0 mi ESE 10.4 mph 16.1 mph N/A   Mostly Cloudy
2:15 AM 24.8 °F 16.1 °F - N/A% 30.15 in 10.0 mi ESE 8.1 mph - N/A   Mostly Cloudy
2:35 AM 24.8 °F 16.1 °F - N/A% 30.14 in 10.0 mi East 8.1 mph - N/A   Overcast
2:55 AM 24.8 °F 16.1 °F - N/A% 30.13 in 10.0 mi East 8.1 mph - N/A   Overcast
3:15 AM 24.8 °F 15.3 °F - N/A% 30.15 in 10.0 mi SE 9.2 mph - N/A   Overcast
3:35 AM 24.8 °F 15.3 °F - N/A% 30.13 in 10.0 mi East 9.2 mph - N/A   Overcast
3:55 AM 24.8 °F 16.1 °F - N/A% 30.13 in 10.0 mi ESE 8.1 mph - N/A   Overcast
4:15 AM 24.8 °F 15.3 °F - N/A% 30.12 in 10.0 mi ESE 9.2 mph - N/A   Mostly Cloudy
4:35 AM 23.0 °F 13.1 °F - N/A% 30.11 in 10.0 mi East 9.2 mph - N/A   Overcast
4:55 AM 23.0 °F - - N/A% 30.12 in 10.0 mi Calm Calm - N/A   Overcast
5:15 AM 24.8 °F - - N/A% 30.14 in 10.0 mi Calm Calm - N/A   Overcast
5:35 AM 24.8 °F - - N/A% 30.14 in 10.0 mi Calm Calm - N/A   Overcast
5:55 AM 24.8 °F 16.1 °F - N/A% 30.12 in 10.0 mi East 8.1 mph - N/A   Overcast
6:15 AM 24.8 °F 16.9 °F - N/A% 30.12 in 10.0 mi East 6.9 mph - N/A   Overcast
6:35 AM 24.8 °F - - N/A% 30.13 in 10.0 mi Calm Calm - N/A   Overcast
6:53 AM 23.0 °F 13.9 °F 17.6 °F 80% 30.12 in 10.0 mi East 8.1 mph - N/A   Overcast
7:46 AM 23.0 °F 11.1 °F 19.4 °F 86% 30.09 in 1.0 mi East 12.7 mph - N/A Snow Light Snow
8:08 AM 23.0 °F 13.1 °F 21.2 °F 93% 30.08 in 0.5 mi East 9.2 mph 17.3 mph N/A Snow Snow
8:47 AM 23.0 °F 11.1 °F 23.0 °F 100% 30.05 in 2.0 mi East 12.7 mph 19.6 mph N/A Snow Light Snow
9:51 AM 23.0 °F 10.6 °F 23.0 °F 100% 29.99 in 1.5 mi East 13.8 mph 23.0 mph N/A Snow Light Snow
10:51 AM 24.8 °F 12.9 °F 24.8 °F 100% 29.99 in 1.0 mi East 13.8 mph 20.7 mph N/A Snow Light Snow
11:48 AM 26.6 °F 16.8 °F 24.8 °F 93% 29.95 in 2.0 mi East 10.4 mph - N/A Snow Light Snow
12:45 PM 26.6 °F 16.2 °F 24.8 °F 93% 29.95 in 3.0 mi ESE 11.5 mph - N/A Snow Light Snow
1:46 PM 26.6 °F 16.2 °F 26.6 °F 100% 29.89 in 1.5 mi East 11.5 mph - N/A Snow Light Snow
2:46 PM 26.6 °F 20.0 °F 26.6 °F 100% 29.88 in 3.0 mi East 5.8 mph - N/A Snow Light Snow
3:46 PM 28.4 °F 22.2 °F 26.6 °F 93% 29.87 in 3.0 mi ESE 5.8 mph - N/A   Overcast
4:46 PM 28.4 °F - 26.6 °F 93% 29.87 in 2.0 mi North - - N/A   Overcast
5:45 PM 28.4 °F - 28.4 °F 100% 29.88 in 1.5 mi Calm Calm - N/A   Overcast
6:46 PM 28.4 °F - 26.6 °F 93% 29.89 in 0.8 mi Calm Calm - N/A   Overcast
7:47 PM 28.4 °F 23.3 °F 28.4 °F 100% 29.91 in 0.5 mi NNE 4.6 mph - N/A   Overcast
8:48 PM 28.4 °F - 26.6 °F 93% 29.92 in 0.5 mi Calm Calm - N/A   Overcast
9:15 PM 28.4 °F - - N/A% 29.92 in 0.5 mi Calm Calm - N/A Fog Light Freezing Fog
9:35 PM 28.4 °F - - N/A% 29.93 in 1.0 mi Calm Calm - N/A Snow Light Snow
9:55 PM 28.4 °F - - N/A% 29.92 in 2.0 mi Calm Calm - N/A   Overcast
10:15 PM 28.4 °F - - N/A% 29.93 in 1.8 mi Calm Calm - N/A   Overcast
10:35 PM 28.4 °F - - N/A% 29.93 in 1.5 mi Calm Calm - N/A   Overcast
10:55 PM 28.4 °F - - N/A% 29.93 in 1.2 mi Calm Calm - N/A Rain Light Freezing Rain
11:15 PM 28.4 °F - - N/A% 29.94 in 2.0 mi Calm Calm - N/A Rain Light Freezing Rain
11:35 PM 28.4 °F 22.2 °F - N/A% 29.95 in 4.0 mi West 5.8 mph - N/A   Haze
11:55 PM 28.4 °F 21.2 °F - N/A% 29.95 in 6.0 mi West 6.9 mph - N/A   Haze